Flag for Canada Weather past 2 weeks in Richmond, British Columbia, Canada

Now
46 °F

Passing clouds.


Feels Like: 41 °F
Forecast: 44 / 53 °F
Wind: 13 mph from West

Location: Vancouver International Air-Port


UV Index: 3 (Moderate)

Visibility: 20 mi


Pressure: 30.00 "Hg

Humidity: 87%

Dew point: 43 °F

Location of RichmondLocation

Historic Weather in Richmond

°F

Richmond temperature yesterday

Maximum temperature yesterday: 54 °F (at 2:00 PM)
Minimum temperature yesterday: 45 °F (at 7:51 PM)
Average temperature yesterday: 49 °F

Past Weeks' High & Low Weather Summary

 TemperatureHumidityPressure
High61 °F (Apr 14, 3:00 PM)100% (Apr 5, 11:00 PM)30.35 "Hg (Apr 5, 11:00 PM)
Low37 °F (Apr 14, 5:00 AM)41% (Apr 13, 10:00 PM)29.67 "Hg (Apr 17, 7:00 PM)
Average50 °F79%30.08 "Hg
* Reported Apr 3 6:00 AM — Apr 18 6:00 AM, Richmond, Weather by CustomWeather, © 2014

Note: Actual official high and low records may vary slightly from our data, if they occured in-between our weather recording intervals... More about our weather records

Advertising

Historic Weather Conditions — Data for Previous 24 hours

 ConditionsComfort  
Time TempWeatherWind HumidityBarometerVisibility
6:00 AM
Apr 18
46 °FMostly cloudy.14 mph76%29.96 "Hg20 mi
5:00 AM45 °FPassing clouds.14 mph81%29.94 "Hg15 mi
4:00 AM46 °FPassing clouds.16 mph76%29.91 "Hg15 mi
3:00 AM46 °FPassing clouds.14 mph82%29.89 "Hg15 mi
2:00 AM46 °FPassing clouds.14 mph82%29.87 "Hg15 mi
1:00 AM46 °FPassing clouds.10 mph87%29.85 "Hg15 mi
12:00 AM46 °FMostly cloudy.12 mph87%29.83 "Hg15 mi
11:00 PM
Apr 17
46 °FMostly cloudy.23 mph82%29.80 "Hg15 mi
10:00 PM46 °FPartly cloudy.30 mph87%29.76 "Hg15 mi
9:00 PM46 °FOvercast.32 mph82%29.72 "Hg15 mi
8:00 PM45 °FRain. Partly sunny.29 mph93%29.69 "Hg6 mi
7:51 PM45 °FRain. Cloudy.26 mph93%29.69 "Hg6 mi
7:00 PM50 °FLight rain. Fog.12 mph94%29.67 "Hg6 mi
6:00 PM52 °FLight rain. Fog.14 mph88%29.68 "Hg6 mi
5:00 PM52 °FLight rain. Cloudy.15 mph94%29.70 "Hg8 mi
4:00 PM52 °FLight rain. Fog.15 mph94%29.72 "Hg6 mi
3:00 PM54 °FSprinkles. Cloudy.16 mph88%29.74 "Hg8 mi
2:00 PM54 °FMostly cloudy.17 mph88%29.75 "Hg8 mi
1:00 PM50 °FLight rain. Fog.10 mph94%29.76 "Hg4 mi
12:00 PM50 °FLight rain. Fog.15 mph94%29.78 "Hg5 mi
11:00 AM50 °FLight rain. Fog.12 mph94%29.80 "Hg6 mi
10:00 AM50 °FLight rain. Fog.13 mph94%29.80 "Hg6 mi
9:00 AM50 °FLight rain. Mostly cloudy.10 mph94%29.81 "Hg8 mi
8:00 AM48 °FLight rain. Overcast.9 mph94%29.82 "Hg8 mi
7:00 AM48 °FLight rain. Overcast.9 mph94%29.82 "Hg10 mi
Weather by CustomWeather, © 2014

See weather overview